GFSSE_850_thetae_021.txt.gz
Theta_e
332 335 328 319 315 317 318 318 315 313 313 314 314 312 313 315 318 317 317 318 316 315 313 310 308 307 307 308 309 312 327 339 343 344 344 343 342 342 341 342 342 337 335
333 336 329 320 320 320 320 318 317 315 314 315 316 315 314 315 319 318 316 316 318 316 317 319 312 308 307 307 308 310 312 325 339 343 344 343 343 343 343 340 340 338 334
335 335 329 326 324 325 324 321 320 318 316 314 315 316 316 316 320 318 316 315 318 320 318 321 321 313 308 307 310 310 311 312 327 340 344 344 344 343 342 340 340 341 338
326 327 328 326 326 325 325 322 321 319 318 316 314 316 317 317 317 315 315 314 315 319 322 322 324 322 315 309 318 326 313 311 314 334 341 342 342 343 342 342 341 340 340
324 321 322 324 326 325 324 322 320 320 318 316 316 321 323 319 320 317 316 314 315 325 327 327 330 328 323 313 317 326 326 315 312 323 338 341 342 343 342 342 341 340 334
320 320 323 326 326 325 322 320 318 318 317 315 315 322 325 323 323 322 322 320 323 320 327 327 327 328 328 324 316 327 329 326 314 315 333 340 342 342 342 341 342 341 335
318 319 322 324 324 322 321 319 319 319 320 317 319 321 321 321 321 321 320 321 321 323 327 327 327 326 327 326 321 319 328 328 324 314 325 338 341 341 341 341 341 341 338
319 321 321 323 322 322 319 321 321 321 321 321 324 325 324 323 322 322 321 321 325 324 325 326 326 325 326 326 326 319 324 328 327 317 321 335 340 341 340 340 341 342 339
322 321 321 322 322 320 321 322 322 322 322 323 325 325 324 324 324 323 321 320 320 324 324 325 325 325 325 325 327 325 320 326 327 321 320 332 339 340 341 340 340 341 337
322 322 322 322 321 322 322 323 322 323 321 326 325 325 325 325 325 321 318 318 317 322 327 326 325 323 324 324 325 326 320 325 328 323 319 331 338 339 340 340 340 339 334
322 322 322 321 322 322 323 323 322 319 323 326 326 326 325 325 326 322 321 317 317 323 324 325 323 325 323 323 325 326 322 323 328 324 319 333 338 339 340 340 338 338 334
322 323 322 322 322 322 323 322 319 321 320 325 326 325 326 326 325 323 320 319 319 319 324 327 324 323 323 323 326 327 322 323 328 324 319 334 337 339 340 341 330 331 338
322 323 322 322 322 323 322 320 318 320 321 323 324 324 326 327 325 323 322 320 323 322 321 324 324 323 323 326 326 326 321 322 327 323 319 333 337 339 340 341 340 339 338
322 323 322 322 323 323 323 318 318 323 325 326 326 325 325 325 323 324 323 321 321 322 322 322 323 324 323 325 325 323 316 319 327 324 319 332 336 337 339 340 339 339 338
323 323 322 322 323 324 320 319 319 323 326 328 328 327 326 325 324 323 325 323 321 320 320 322 322 323 324 325 325 317 311 318 328 325 318 331 335 336 338 339 338 337 336
323 323 322 323 324 323 318 317 319 326 328 327 326 326 326 326 325 324 325 324 321 322 321 320 323 323 324 324 320 316 314 324 327 325 320 332 335 337 338 338 337 338 336
323 323 323 324 324 321 318 316 322 327 327 326 325 326 325 326 326 324 324 324 320 323 321 321 323 323 324 321 322 317 323 329 328 320 327 333 333 337 336 338 336 336 336
323 324 324 325 323 318 317 319 323 326 327 326 326 326 326 325 326 325 324 323 320 322 322 322 323 324 323 320 324 318 327 328 324 324 330 332 333 336 334 335 336 337 336
323 324 325 324 321 316 316 321 324 327 324 326 326 326 326 327 324 325 323 321 320 323 322 322 323 324 323 322 324 323 326 327 328 327 329 330 332 333 334 336 336 335 335
324 325 325 323 317 317 317 322 326 324 326 327 327 327 327 328 325 322 322 320 321 323 323 322 323 324 324 324 324 324 326 327 329 327 328 330 331 332 335 334 331 333 333
325 325 325 321 317 317 322 326 327 326 327 327 328 328 328 327 326 322 321 320 322 323 322 322 323 324 325 325 323 324 326 326 327 327 327 329 331 332 332 334 333 333 333
325 325 323 318 318 321 324 323 323 327 327 327 327 328 327 327 326 325 322 322 323 322 322 322 323 323 325 325 325 325 326 326 327 329 328 329 330 332 331 332 333 333 333
325 325 322 318 319 324 325 324 325 325 325 327 327 328 326 326 325 325 322 323 324 323 322 321 322 323 325 323 323 326 326 327 328 328 328 329 330 331 332 332 332 333 332
325 324 321 320 320 326 326 326 326 325 324 325 326 326 326 326 324 323 323 324 322 323 322 323 324 324 325 324 326 326 325 325 327 329 330 329 331 331 331 329 332 331 332
325 324 320 323 322 325 328 328 326 324 324 325 326 326 327 327 325 323 323 322 322 323 324 324 325 326 325 326 327 327 327 326 326 327 329 331 331 332 329 329 332 331 329
326 323 323 323 322 327 328 328 326 325 326 324 327 327 327 327 325 323 323 322 322 322 323 324 325 324 325 325 325 326 327 326 328 328 329 329 329 333 331 330 330 330 330

GFSSE_850_thetae_024.txt.gz
Theta_e
330 330 328 326 322 314 317 318 317 317 316 313 311 310 310 311 313 315 316 315 316 315 314 311 310 308 306 307 307 309 320 335 342 343 343 343 342 341 340 343 343 339 335
329 332 331 327 318 317 320 319 319 319 317 315 313 311 310 311 312 314 318 316 313 314 316 316 317 311 308 306 307 307 309 317 335 341 343 343 342 342 341 341 341 340 335
330 331 333 327 321 323 323 321 320 320 318 317 315 313 312 313 313 314 316 314 313 312 316 317 318 320 314 309 307 308 308 309 314 334 341 343 343 342 343 342 340 341 335
329 330 329 326 325 324 323 323 321 319 318 318 317 315 314 316 316 317 314 313 315 321 322 322 321 322 322 316 309 324 319 309 309 314 334 342 341 343 343 342 340 340 336
325 326 325 324 323 323 324 323 321 318 318 317 316 315 317 323 321 318 317 315 315 326 328 329 331 330 324 323 316 310 327 326 312 311 318 338 342 342 343 342 341 341 338
321 322 321 323 324 324 324 323 319 318 318 318 317 316 323 325 324 323 324 321 320 319 328 328 327 327 327 328 324 314 315 328 325 312 312 328 341 341 342 342 342 341 339
320 319 320 323 324 325 324 322 320 319 320 320 319 318 324 323 323 323 323 323 320 320 324 327 328 326 326 325 327 325 316 323 327 323 313 320 337 341 341 341 342 342 340
320 318 319 322 324 325 323 321 321 321 321 321 319 322 324 323 322 322 321 323 323 323 323 325 325 325 325 325 326 325 324 321 326 326 320 315 333 340 341 341 341 342 340
320 319 320 321 323 325 322 320 321 322 322 322 319 324 324 324 323 324 323 322 320 323 324 324 325 325 324 325 325 325 326 321 324 326 325 315 328 338 340 340 340 341 341
321 320 321 321 323 323 321 321 322 322 322 320 321 325 325 325 325 324 323 319 317 317 323 325 325 323 324 324 324 324 326 325 319 324 326 317 324 336 339 340 339 340 342
321 321 322 322 322 322 321 322 322 322 321 318 323 325 325 326 325 325 323 321 318 316 317 324 324 324 324 323 323 323 325 326 320 322 326 318 326 334 338 339 340 340 340
322 321 321 322 322 322 322 322 323 322 318 318 321 324 325 325 325 326 323 322 317 317 317 322 325 326 321 324 323 322 325 326 320 323 327 320 327 333 337 338 339 339 339
324 322 321 322 322 322 322 322 322 320 317 321 322 323 325 325 326 326 323 323 319 321 322 320 324 324 323 323 323 322 325 326 320 324 328 320 327 335 337 339 339 338 330
324 322 322 322 322 322 322 322 322 316 321 325 326 326 326 326 326 324 324 324 323 320 322 322 321 322 324 322 323 324 326 325 318 324 327 319 327 335 338 339 340 335 333
324 323 322 323 323 322 322 323 319 316 323 326 328 328 327 327 326 324 324 324 324 321 320 320 321 322 323 324 324 325 325 319 319 322 326 319 326 335 338 339 339 336 334
324 323 322 323 322 322 323 322 317 321 326 327 326 326 325 325 326 325 324 324 325 321 321 321 320 322 322 323 324 325 325 314 315 322 327 319 330 334 336 338 339 339 337
324 323 322 322 322 322 324 318 318 323 327 327 327 326 326 325 325 326 325 324 325 322 322 322 320 321 322 324 324 322 317 313 316 325 327 319 331 333 335 337 339 338 337
324 323 322 322 322 324 321 317 321 324 326 327 327 326 325 326 326 325 326 324 324 321 320 322 321 322 323 324 321 321 319 317 328 328 324 324 331 334 335 336 338 337 337
324 322 322 322 324 323 318 318 322 325 326 325 326 326 326 326 327 325 325 324 323 320 321 322 322 322 324 323 321 323 316 326 328 325 323 329 332 332 334 335 337 332 336
323 322 322 324 324 320 318 321 323 325 325 327 328 328 328 328 327 325 323 323 321 319 323 323 322 323 324 322 321 323 323 326 327 325 327 329 330 331 332 332 334 336 329
323 322 324 325 323 318 318 323 326 323 325 326 327 327 327 328 326 326 323 321 320 321 323 323 322 323 324 324 324 324 324 326 325 327 326 328 329 330 331 333 334 334 335
322 324 325 324 319 318 323 324 322 324 325 325 326 327 328 326 326 326 323 321 321 323 323 322 322 323 324 324 325 324 325 326 325 326 326 327 329 330 331 332 332 331 334
323 325 325 322 319 321 324 323 323 325 324 324 326 327 326 326 325 325 325 321 323 324 323 322 322 323 324 325 325 324 326 326 326 327 329 328 328 330 331 332 332 332 333
325 325 323 320 319 322 324 325 325 324 324 324 325 325 325 326 325 323 322 322 324 322 322 321 322 322 324 324 324 324 325 326 327 327 330 329 330 330 332 332 332 332 332
325 324 322 321 319 323 325 327 325 324 325 323 325 326 327 327 325 323 323 323 322 323 322 321 322 323 324 324 322 325 326 325 324 325 327 329 330 330 331 329 328 332 332
324 323 321 321 320 323 327 327 325 326 325 324 324 327 326 327 325 323 323 322 322 323 324 324 324 325 325 325 324 326 327 326 325 326 327 328 329 330 331 329 328 330 331

GFSSE_850_thetae_030.txt.gz
Theta_e
331 327 327 328 325 324 314 317 319 319 318 315 314 313 311 310 310 311 312 312 313 314 314 313 313 311 309 308 307 308 309 313 335 342 343 343 342 341 340 340 341 345 338
325 323 324 327 328 326 317 321 320 319 318 316 315 314 313 311 310 310 312 314 315 315 314 316 316 316 316 310 308 307 307 308 321 338 342 343 343 342 341 341 343 348 338
325 323 323 325 325 325 320 320 319 319 318 316 315 314 313 312 312 312 313 312 313 315 313 313 315 316 318 320 313 309 307 307 308 323 337 343 345 343 342 341 341 344 340
324 323 322 322 324 322 320 319 319 319 317 316 316 316 315 313 313 314 317 317 315 311 310 311 313 320 320 322 322 317 312 310 308 309 324 339 347 345 342 342 341 341 341
324 323 320 319 322 320 319 319 320 319 318 318 318 317 317 315 315 320 320 320 321 320 320 315 321 323 328 328 329 327 318 325 320 310 321 333 341 343 343 342 342 342 341
324 322 319 320 321 320 320 320 320 320 319 319 320 320 318 317 319 327 326 325 326 327 326 325 318 330 331 328 327 330 328 317 324 331 326 327 333 341 342 342 343 343 342
327 323 319 319 321 320 320 321 321 320 319 320 320 321 320 317 326 328 325 325 325 324 328 328 324 325 330 325 325 325 331 328 323 331 331 328 327 334 340 342 343 343 343
331 322 324 319 320 320 321 322 323 322 320 321 321 321 321 319 326 327 324 323 325 325 324 328 329 324 326 325 324 323 325 329 331 330 332 331 326 327 335 342 342 342 342
333 326 319 318 320 321 322 323 324 324 322 321 322 321 322 321 324 323 323 322 322 323 322 323 325 327 326 325 327 326 325 325 331 331 332 332 330 314 325 340 341 342 342
334 333 325 319 320 321 323 324 324 325 324 322 322 322 322 322 324 324 324 324 324 324 322 319 323 324 324 325 325 325 325 326 330 332 333 332 331 321 317 334 341 341 341
332 334 332 334 333 323 327 327 325 325 325 323 322 323 324 330 331 332 331 327 324 324 322 320 317 319 323 323 324 324 324 329 330 331 332 332 329 323 314 329 339 340 341
332 333 333 335 337 337 336 337 327 330 331 332 335 336 334 332 332 331 329 327 324 325 322 319 316 317 322 330 330 326 327 328 329 330 331 332 326 325 315 325 336 339 340
330 332 333 334 334 337 336 337 338 337 336 335 332 332 331 331 332 332 332 332 332 330 328 327 328 326 326 328 332 329 329 327 327 329 331 331 325 326 317 320 334 337 340
330 331 334 335 326 327 336 336 337 335 333 332 332 324 320 332 333 332 331 331 330 329 329 328 326 327 327 327 330 329 330 329 327 329 330 330 321 327 319 319 331 336 339
329 331 333 336 332 324 326 336 334 330 328 329 329 327 324 330 332 332 332 332 330 329 329 330 326 326 328 327 327 330 330 330 327 330 329 330 321 327 318 322 331 336 338
328 330 333 335 329 324 323 324 325 323 328 324 328 330 327 328 331 332 332 331 331 330 330 327 327 326 327 327 328 330 329 330 330 330 331 330 325 327 318 325 332 336 338
330 329 331 329 327 324 324 323 325 325 323 329 329 326 326 327 331 329 330 330 328 328 327 326 327 327 327 327 329 330 329 329 328 330 329 327 330 325 318 327 334 336 337
326 327 328 329 327 324 323 323 325 327 325 329 330 331 327 327 329 328 328 328 327 326 326 326 328 327 328 328 327 329 329 330 328 329 325 327 331 330 327 329 335 337 338
326 327 325 326 329 323 324 324 323 323 324 329 331 331 332 331 329 328 328 328 330 326 328 327 328 327 327 326 325 327 328 329 328 325 326 328 331 330 332 334 334 336 338
325 324 324 326 325 324 325 325 325 330 329 330 332 331 333 332 331 329 328 328 326 329 327 326 326 324 327 326 327 328 327 327 326 327 327 330 330 328 332 333 335 336 340
324 323 326 327 327 328 330 330 330 329 330 332 332 332 333 331 330 329 328 327 326 325 326 326 324 324 324 325 328 325 325 325 325 324 328 327 326 332 331 335 335 335 337
324 324 325 330 326 326 330 330 330 331 332 332 332 332 330 330 328 328 327 327 326 326 326 325 323 326 325 324 327 327 325 324 327 327 328 324 327 329 333 333 334 336 332
326 326 328 331 326 328 331 329 325 327 327 330 332 332 332 329 328 327 327 326 323 326 326 324 323 325 324 324 327 328 326 324 324 325 326 329 329 330 330 331 335 334 333
331 330 333 331 324 325 321 330 331 329 329 331 329 331 330 329 328 327 325 326 325 325 323 324 326 325 325 328 328 328 326 327 324 328 326 328 331 331 330 331 334 334 328
331 332 332 326 326 326 322 332 329 329 331 331 330 329 330 329 328 326 326 327 327 324 324 326 327 325 325 327 328 328 328 330 330 329 328 329 330 331 330 333 333 334 334
331 332 332 330 332 328 331 327 327 331 331 331 331 332 332 329 328 326 328 326 325 325 326 327 327 326 327 326 326 327 329 331 331 330 329 329 330 331 331 332 331 330 332

GFSSE_850_thetae_033.txt.gz
Theta_e
334 325 324 325 326 325 322 316 319 318 316 314 313 313 312 310 310 310 310 311 311 313 314 314 313 312 310 310 308 307 308 310 316 338 342 342 342 341 340 340 341 345 343
333 323 322 325 326 325 321 318 319 318 316 315 314 313 313 312 311 310 311 312 314 315 315 314 315 316 316 314 310 308 307 308 310 326 340 342 342 342 341 340 341 349 345
333 323 321 323 325 325 321 319 319 318 317 315 315 314 314 313 312 312 312 313 313 315 315 314 313 314 316 317 319 313 309 307 307 310 328 340 345 343 342 341 341 346 346
333 322 320 321 323 324 321 319 318 319 318 317 316 316 316 315 314 314 314 316 317 315 312 312 313 312 317 321 321 322 317 310 308 307 311 333 342 343 343 342 341 343 345
333 323 320 320 321 323 320 318 319 319 319 319 319 319 318 317 316 316 320 322 322 323 322 321 323 326 318 326 329 328 325 318 314 308 317 322 334 342 341 342 341 341 342
333 335 319 319 320 321 319 319 319 320 320 319 320 320 320 319 317 321 327 328 327 325 328 327 327 326 327 329 329 326 329 328 318 330 328 323 327 339 341 340 342 342 342
334 334 331 320 320 320 320 320 320 320 320 320 320 321 321 321 318 323 329 327 326 325 325 327 330 327 326 331 332 326 324 330 328 330 331 330 328 328 338 340 342 343 343
334 334 336 322 321 320 320 320 320 321 321 320 320 321 321 322 320 322 327 327 325 322 326 325 326 330 329 327 329 326 324 324 333 332 333 333 332 327 328 333 341 342 343
334 335 335 332 320 321 321 321 321 322 322 322 321 321 321 322 322 322 324 324 323 322 322 321 320 321 326 328 327 326 326 324 328 334 332 332 331 330 324 324 339 342 342
336 335 335 338 328 321 322 322 322 323 323 324 323 322 322 322 323 330 331 327 324 325 324 323 321 317 318 320 324 324 325 326 328 331 333 334 334 332 330 315 336 341 341
334 335 336 335 339 335 328 328 323 323 323 324 324 323 323 327 334 335 334 333 331 329 325 324 322 320 317 316 318 322 325 325 330 330 330 332 332 332 330 318 328 338 340
332 334 335 336 337 340 338 339 336 325 324 325 325 333 337 339 335 334 333 333 331 329 325 324 323 321 316 325 327 330 328 328 329 329 331 330 332 332 329 317 321 336 340
330 332 334 336 336 339 339 339 342 341 338 338 338 339 339 336 332 333 334 333 333 332 331 331 329 330 330 327 328 328 332 330 327 328 331 329 330 331 326 322 317 332 338
328 331 332 335 336 339 339 338 340 341 340 338 338 339 337 334 334 335 334 333 333 332 332 330 329 329 328 328 328 327 331 331 330 327 331 330 329 330 325 324 315 329 335
327 328 333 334 336 336 337 338 339 339 338 337 335 335 335 333 334 335 334 333 332 333 332 331 329 329 328 327 327 327 328 331 332 330 327 329 330 330 319 325 316 325 334
328 330 333 334 336 336 338 338 338 338 336 334 333 333 333 333 334 334 334 332 332 333 332 330 329 328 328 328 327 327 326 327 327 330 328 328 329 328 318 326 317 322 333
331 333 335 334 338 338 339 338 340 338 333 333 333 333 333 335 335 332 333 333 333 331 329 330 329 328 328 328 327 327 328 328 328 327 329 328 331 328 321 326 318 324 332
330 332 336 335 339 341 343 342 340 335 334 332 332 333 335 335 334 334 333 334 332 330 328 327 329 330 327 327 327 329 329 330 331 328 328 329 328 332 331 321 318 329 331
332 335 337 337 339 343 344 342 338 334 334 333 332 333 334 335 335 333 334 332 329 328 329 327 328 329 327 328 330 328 330 328 329 329 330 329 329 331 332 332 323 331 332
334 336 337 337 337 341 342 339 336 335 334 332 333 333 334 335 334 335 333 331 329 329 328 328 327 329 329 327 328 328 326 328 328 328 327 329 330 331 331 334 331 332 335
334 337 336 336 337 340 339 336 334 334 334 332 333 334 335 334 334 333 332 329 329 328 328 327 328 328 326 326 324 326 327 329 327 327 330 330 331 333 332 332 334 335 336
336 336 336 336 338 337 336 334 333 333 332 334 334 335 335 334 333 332 330 329 328 328 327 326 327 325 325 325 326 328 328 327 328 328 325 328 332 333 334 334 333 335 337
337 337 337 338 338 336 334 334 335 335 334 333 332 333 334 332 333 330 330 329 328 328 328 327 327 327 327 326 325 328 328 326 325 328 329 331 331 332 333 333 334 336 336
337 337 338 338 337 336 336 335 335 332 332 332 333 331 334 333 332 331 329 329 327 328 328 328 325 325 326 326 325 329 328 328 326 328 328 329 330 332 332 333 333 335 332
337 337 338 338 337 337 333 335 335 332 330 331 331 332 334 331 331 330 329 329 328 326 326 325 325 325 326 327 328 328 331 329 326 326 328 330 328 330 332 333 333 334 328
336 337 337 337 337 336 335 335 333 333 333 332 333 333 331 329 329 330 329 329 328 327 325 327 326 328 326 327 327 328 329 331 329 331 329 329 331 331 332 333 333 332 330

GFSSE_850_thetae_036.txt.gz
Theta_e
333 324 323 323 324 324 322 317 318 316 314 313 313 313 312 311 310 310 310 311 311 312 313 314 314 313 311 310 309 308 308 310 311 317 339 342 343 342 340 340 341 342 338
330 323 322 322 323 322 321 318 316 315 314 313 313 313 312 312 312 311 310 311 312 314 315 315 315 314 315 315 314 310 308 307 308 311 322 340 342 343 341 340 341 345 347
329 323 322 321 321 321 320 317 316 316 315 315 315 314 314 314 313 313 312 312 313 313 314 313 312 311 312 314 315 317 313 309 307 308 311 328 341 343 342 341 341 343 347
330 324 322 321 321 321 319 318 317 317 318 318 318 318 317 315 315 315 315 315 316 316 315 314 313 313 313 313 316 318 320 317 309 307 308 314 334 342 341 340 341 341 346
332 324 321 321 320 320 320 318 318 319 319 320 320 320 320 319 316 317 320 323 323 323 325 323 323 324 321 323 327 328 323 323 320 311 307 308 329 330 337 340 340 341 343
336 330 321 320 320 320 320 319 319 320 320 320 320 320 321 321 319 317 323 328 327 328 324 329 328 327 325 322 329 330 326 327 325 320 319 320 322 324 341 340 340 341 341
335 336 329 319 320 320 321 319 319 319 320 320 320 320 321 321 322 319 321 326 328 326 325 324 327 331 331 327 328 333 330 322 328 327 331 332 327 326 328 335 340 340 341
335 334 335 325 320 320 321 320 319 320 320 320 320 320 321 322 322 322 319 323 330 328 322 321 323 322 329 330 327 328 329 326 322 332 330 332 333 332 325 327 334 339 341
335 335 335 335 323 321 320 321 320 320 321 321 321 321 321 322 322 322 322 326 326 322 322 321 320 321 320 321 328 328 326 325 323 324 331 332 331 333 331 325 324 330 340
336 335 335 335 335 325 322 321 321 321 321 322 323 323 322 322 322 322 330 332 333 332 330 325 322 322 320 318 319 322 327 325 324 322 332 334 334 332 332 330 321 322 339
332 336 336 336 335 336 323 322 322 321 321 322 323 324 324 323 322 330 335 333 334 333 331 329 325 323 321 320 317 316 318 321 323 324 324 330 332 333 333 332 331 317 337
330 330 336 336 336 336 337 325 323 323 322 322 323 324 324 324 333 337 335 334 332 332 331 330 329 327 327 323 317 325 328 326 323 325 330 329 331 332 332 332 330 317 333
329 329 329 336 336 336 337 339 337 333 326 323 323 324 325 331 339 336 334 334 334 333 333 331 332 330 328 330 327 328 328 329 330 327 328 331 330 327 330 332 327 314 328
328 328 327 333 336 336 337 340 339 339 337 331 325 329 333 339 337 329 331 334 334 333 332 331 330 329 329 329 329 328 328 327 331 329 330 330 331 329 329 331 323 316 323
328 327 327 334 335 335 335 339 340 340 342 340 339 339 338 336 331 333 335 336 335 335 333 333 332 330 329 328 328 327 328 327 327 332 331 331 330 330 329 330 323 319 319
328 326 328 336 335 334 335 336 339 339 342 341 339 338 336 334 331 332 335 334 334 330 331 331 331 330 328 328 328 327 328 328 326 332 331 331 328 328 329 328 320 320 317
326 328 332 334 336 335 335 337 337 340 339 339 337 334 334 333 332 331 334 335 334 333 332 330 329 329 330 328 329 328 326 327 325 326 329 331 328 327 328 322 319 321 317
327 328 333 333 335 336 336 338 337 343 340 337 334 334 333 333 332 331 334 334 332 332 333 329 328 328 327 328 327 327 328 327 326 326 327 326 328 330 330 327 322 321 317
328 329 330 334 336 337 339 340 340 343 340 337 333 333 333 334 335 333 333 333 333 333 330 328 328 327 327 328 327 326 328 327 328 329 328 327 329 330 330 332 324 318 320
330 334 335 336 337 339 341 341 343 342 338 335 333 333 334 334 336 335 334 334 332 332 329 329 329 327 328 328 328 327 326 326 326 325 326 328 325 327 331 333 332 323 324
331 330 332 337 338 339 340 343 343 338 336 334 333 333 334 335 336 334 333 332 332 330 329 329 328 327 328 329 326 327 324 325 329 328 329 326 328 329 328 332 332 327 327
332 332 335 336 337 339 340 341 338 336 335 334 333 335 334 335 334 333 331 332 330 329 329 328 327 326 327 326 325 326 326 326 327 327 327 327 328 329 330 329 327 330 334
334 334 335 336 338 338 340 337 336 334 335 334 335 335 332 333 332 329 331 330 330 329 328 327 325 326 327 324 325 325 327 326 325 328 328 324 326 329 332 327 330 332 334
336 335 337 337 337 337 337 336 335 335 333 333 332 334 334 335 333 329 330 330 329 328 328 326 327 325 326 325 326 325 326 326 326 328 325 325 328 327 325 329 333 334 333
338 338 339 338 334 338 335 336 335 334 333 333 333 332 332 331 330 330 331 328 329 327 327 327 325 325 325 325 326 324 326 328 325 328 328 326 327 326 330 328 330 334 334
339 339 339 337 338 337 335 336 335 332 334 333 333 333 333 331 328 330 330 328 327 326 325 326 325 325 326 325 326 326 328 328 328 327 326 325 326 327 328 331 333 334 334

GFSSE_850_thetae_042.txt.gz
Theta_e
327 324 323 322 322 319 318 318 318 318 317 317 317 316 315 314 313 312 312 311 310 310 310 310 310 310 310 309 309 309 310 312 314 314 326 342 343 345 342 340 339 336 331
325 324 323 322 322 319 318 319 319 319 319 318 317 317 316 315 314 314 314 314 314 312 311 311 311 311 312 312 313 313 310 309 308 310 312 327 341 342 342 340 341 341 335
325 324 323 322 322 320 318 319 319 319 319 319 318 318 318 317 316 315 315 317 317 316 316 314 313 312 310 310 311 312 313 314 309 308 308 311 336 341 341 340 340 341 344
326 324 324 322 322 319 318 319 319 319 319 319 319 320 320 320 319 317 316 317 319 320 320 320 322 319 315 312 310 310 312 314 316 310 308 308 320 340 341 341 340 340 341
328 324 324 323 321 320 319 319 319 319 319 320 320 321 321 321 321 320 317 316 318 323 324 324 323 325 325 324 317 312 313 314 314 317 310 307 309 337 338 334 339 340 340
331 325 324 323 322 321 320 320 320 319 319 320 321 321 321 322 322 322 321 317 316 323 325 326 324 326 327 325 325 319 328 326 318 316 318 308 308 330 332 330 334 339 340
332 331 327 323 323 322 321 320 320 319 320 320 320 321 321 322 322 322 322 321 318 321 327 325 323 326 326 329 331 328 324 328 329 319 320 315 311 322 327 331 338 339 339
332 331 332 330 323 322 321 320 320 319 319 320 320 321 321 322 322 322 322 322 321 324 326 324 321 320 319 323 324 329 329 324 330 329 322 323 326 327 326 326 330 336 338
334 332 332 333 327 321 321 321 321 320 319 319 320 320 321 321 321 321 322 322 323 326 328 327 326 324 321 320 319 319 322 328 326 324 321 324 330 331 328 328 330 327 328
335 334 334 334 333 330 322 321 321 320 319 319 320 320 320 321 321 321 321 322 324 326 329 329 329 329 328 324 322 321 319 319 321 325 323 320 330 332 331 331 330 329 327
335 335 335 334 334 334 331 326 321 321 320 319 319 320 320 321 321 322 322 323 328 326 330 331 331 330 329 327 323 322 320 317 317 318 323 320 328 332 333 332 332 330 330
332 333 334 334 334 334 334 333 328 321 321 320 320 319 320 321 322 322 323 326 330 330 332 332 332 331 329 328 327 327 320 317 319 322 317 321 324 332 331 331 329 329 331
329 329 329 332 334 334 334 334 334 328 322 321 321 320 320 320 321 322 323 330 332 332 333 334 333 330 330 329 328 324 323 328 328 328 328 321 323 328 330 330 330 331 330
331 330 329 328 330 333 334 334 334 334 332 326 321 321 321 320 320 321 323 329 330 330 333 334 332 331 330 329 328 328 328 328 328 328 327 321 327 329 329 328 329 329 329
331 330 330 328 328 328 330 331 334 335 335 333 326 322 322 322 322 321 324 332 334 332 332 334 332 331 331 330 330 328 328 328 328 327 326 328 328 329 329 329 329 328 329
330 330 330 329 328 327 327 328 330 334 335 336 334 329 324 328 327 324 330 333 338 332 335 334 332 331 330 330 330 328 328 327 327 326 326 327 328 329 328 330 330 328 329
330 330 329 329 328 328 327 328 331 334 335 336 336 337 338 337 331 334 335 334 331 333 335 333 332 332 330 330 330 331 328 328 327 327 326 327 330 330 330 330 329 328 328
328 329 328 329 329 328 327 328 333 335 336 336 338 339 340 339 338 337 335 333 331 333 335 334 334 332 331 331 330 329 328 328 327 327 328 327 326 330 330 328 326 327 326
328 327 328 329 329 329 328 331 333 335 337 338 340 341 341 340 338 335 334 332 332 331 334 334 332 332 331 330 328 329 328 328 328 326 325 326 325 328 329 328 328 325 320
327 327 327 329 329 329 330 333 336 339 340 341 342 342 340 336 334 332 333 333 333 331 331 332 331 330 330 328 328 328 328 327 327 326 326 326 326 327 327 329 329 329 321
328 327 327 329 330 329 331 336 339 342 342 342 339 337 335 335 333 333 333 334 332 332 332 330 329 330 328 329 327 327 327 326 325 325 325 327 327 327 327 328 327 330 327
328 329 329 330 331 331 334 337 340 342 342 342 340 338 337 333 333 332 333 334 334 331 329 329 329 329 329 328 327 327 326 324 323 324 325 326 325 327 328 326 326 328 329
328 328 330 331 332 334 338 341 342 341 340 340 341 338 334 333 332 333 334 332 331 327 329 329 329 328 328 327 326 327 324 324 323 323 325 326 326 326 327 327 327 328 329
328 331 332 332 333 338 342 342 341 339 340 337 333 333 333 332 333 334 334 332 329 329 329 328 327 327 326 325 326 326 324 326 325 326 326 327 327 325 326 327 328 328 327
330 332 333 333 337 339 340 339 337 334 334 335 335 334 334 334 334 333 331 330 329 329 327 327 326 324 325 325 326 325 324 325 327 327 325 326 326 327 326 326 326 329 327
334 334 333 333 337 339 338 337 335 337 336 334 334 333 332 332 331 331 328 328 329 327 326 325 326 327 325 325 325 325 325 324 326 327 326 325 324 323 325 326 326 326 327

GFSSE_850_thetae_045.txt.gz
Theta_e
325 323 322 322 321 318 316 317 317 319 319 319 317 316 315 314 313 312 311 311 310 309 309 309 309 309 309 309 310 311 312 313 315 316 322 341 343 344 342 341 336 332 334
325 324 323 322 322 319 317 318 318 319 319 319 319 318 318 317 316 314 314 314 314 313 311 311 310 310 311 311 311 311 309 309 309 310 314 320 340 342 343 341 341 340 334
325 324 324 322 322 320 318 319 319 319 319 319 319 319 318 318 317 317 315 315 316 317 317 316 314 313 311 310 311 311 312 313 310 308 308 312 326 341 341 341 340 342 340
325 325 325 323 322 321 320 320 320 320 320 319 319 319 320 320 320 319 317 316 316 319 320 320 321 321 319 314 311 309 310 312 314 312 308 308 312 339 340 340 340 340 342
326 325 324 324 323 322 320 320 320 320 320 319 320 320 320 321 321 321 319 318 316 318 321 323 323 322 324 324 323 314 311 311 312 315 313 308 308 335 340 340 340 340 340
328 325 324 324 323 323 321 320 320 320 320 319 320 320 321 321 322 322 322 321 318 317 322 323 323 323 325 326 325 323 318 323 318 313 318 312 307 325 338 330 337 338 340
331 327 325 324 324 323 322 320 320 320 320 319 320 320 321 321 322 322 322 322 321 319 322 324 322 321 328 325 331 331 328 324 326 326 316 317 308 312 333 331 331 334 338
331 330 330 325 323 323 322 321 320 320 320 320 320 320 321 321 321 322 322 322 322 322 324 325 324 322 320 319 321 324 326 329 324 329 323 320 316 315 324 326 330 337 338
333 332 331 329 324 322 322 322 321 320 320 319 320 320 320 321 321 321 321 322 322 323 326 327 327 327 326 322 320 319 319 321 329 326 325 322 323 322 323 325 326 327 330
333 333 333 332 331 327 323 322 321 320 320 319 319 320 320 320 320 320 321 321 321 325 326 328 329 329 328 328 326 323 322 320 319 321 324 323 323 328 325 325 327 329 327
334 334 334 334 333 333 329 324 322 321 320 319 319 319 319 320 320 320 321 321 322 326 327 329 331 330 330 328 326 324 323 321 319 317 320 324 320 328 331 327 328 329 328
333 333 334 334 334 334 333 329 326 323 321 321 319 319 319 319 320 320 321 322 323 327 328 330 332 332 330 329 328 327 325 324 318 316 317 320 322 325 331 330 331 331 330
332 332 332 333 334 334 334 334 332 330 324 322 321 320 319 319 320 320 321 322 323 328 328 330 332 332 330 329 329 328 324 320 325 327 327 322 320 322 331 329 330 329 329
331 329 329 329 330 331 334 334 334 333 330 325 323 321 320 319 319 320 320 321 323 328 329 329 332 333 331 329 329 328 328 327 328 328 328 327 323 323 327 331 329 329 330
329 330 331 330 329 329 331 332 332 333 332 331 326 324 322 321 319 319 319 320 322 329 332 330 332 333 332 330 329 329 328 327 327 328 327 328 327 325 328 328 328 328 329
329 329 330 330 330 328 328 328 328 330 330 332 331 329 325 322 321 321 320 321 323 333 334 332 332 332 331 331 330 329 330 328 327 327 326 326 327 327 328 328 328 329 328
328 329 328 328 329 328 328 328 328 328 330 332 333 334 332 327 323 323 323 323 328 334 335 333 332 331 329 331 329 329 329 330 329 327 327 327 326 327 329 328 328 330 329
328 328 328 328 329 328 328 328 328 328 330 333 334 335 335 332 332 335 333 328 335 333 332 333 332 330 332 332 329 330 330 329 329 328 328 327 328 327 330 329 330 329 327
328 328 328 328 328 328 328 328 328 330 332 334 336 338 337 337 339 337 335 337 336 332 332 332 334 331 332 331 330 330 328 328 328 328 327 327 327 326 329 330 328 327 327
328 328 328 328 328 329 329 328 329 332 334 336 338 339 339 340 340 339 336 337 335 333 332 331 331 332 330 329 329 328 328 328 328 328 327 327 325 325 326 328 328 328 326
327 328 328 327 328 329 329 329 332 332 335 338 340 340 341 342 341 336 335 333 333 334 331 331 332 330 329 329 328 328 328 327 327 327 326 326 326 325 327 327 329 328 329
327 328 327 328 328 329 330 331 333 334 338 341 341 341 341 340 337 334 333 332 333 333 332 330 328 328 328 328 328 328 327 327 326 326 325 325 326 327 327 326 327 327 328
324 327 328 328 328 329 331 334 337 341 342 341 341 339 336 335 334 332 332 333 333 331 331 328 328 328 328 328 328 326 325 323 323 323 323 325 326 327 326 327 327 326 327
325 327 329 329 330 332 334 337 339 341 342 341 340 339 337 335 333 332 333 333 332 331 329 329 329 328 327 327 327 326 326 325 324 325 323 324 326 327 327 327 327 326 327
326 329 331 332 333 334 337 339 342 342 341 340 339 334 333 333 332 333 334 333 329 328 329 328 327 326 326 325 325 325 326 324 326 326 325 326 327 328 325 326 327 327 327
328 331 333 334 334 337 341 341 340 337 336 334 333 334 333 334 334 334 332 330 328 328 327 325 325 325 325 325 325 325 325 324 324 326 326 325 326 326 326 325 326 326 326

GFSSE_850_thetae_048.txt.gz
Theta_e
326 324 322 322 321 318 317 316 315 316 317 318 318 317 317 316 314 313 312 311 311 310 309 309 310 310 310 311 312 313 313 314 316 318 318 337 342 343 341 340 337 336 339
326 324 322 322 322 320 319 318 318 318 318 318 319 319 318 317 317 316 315 314 314 313 312 310 310 310 310 310 310 309 309 309 310 312 314 315 332 341 343 340 340 338 338
326 325 323 323 323 322 321 320 318 318 318 318 318 318 318 318 317 317 316 316 316 316 316 316 315 314 312 311 310 311 311 312 310 309 309 310 315 337 341 342 340 341 338
326 325 325 324 324 323 321 320 319 319 319 319 319 319 319 319 319 318 318 317 316 317 318 320 321 321 320 318 314 310 309 311 312 313 309 308 310 326 340 341 341 340 342
325 325 326 325 325 324 321 320 320 319 319 319 319 319 320 320 321 321 320 319 317 317 319 321 322 322 323 324 323 321 313 310 310 312 314 310 307 319 339 340 340 340 340
325 326 325 326 325 324 323 320 320 319 319 319 319 319 320 320 321 322 322 321 319 317 319 321 322 322 322 323 323 325 321 319 320 313 313 316 308 310 337 338 339 340 340
327 327 326 325 324 324 323 321 321 320 319 319 319 319 320 320 321 322 322 322 322 320 320 322 322 322 321 321 323 328 331 328 324 325 317 315 315 307 325 336 333 334 338
330 330 328 327 325 323 323 321 321 321 320 319 319 319 320 320 321 321 322 322 322 322 322 325 324 323 322 320 320 320 320 321 329 324 327 317 318 312 314 330 333 332 335
331 331 330 327 327 324 323 322 321 321 320 320 319 319 320 320 320 321 321 321 321 322 323 324 326 326 327 325 324 321 320 319 319 328 325 327 320 319 320 324 324 329 332
332 332 332 331 329 326 324 323 322 321 320 320 319 319 319 320 320 321 321 321 321 321 324 324 327 327 328 328 326 326 323 322 321 318 323 324 323 322 323 325 323 326 327
332 332 332 333 331 328 325 323 323 322 320 319 319 319 319 319 320 320 320 320 321 321 325 325 328 329 329 328 327 326 325 324 322 319 317 322 323 322 327 325 326 326 328
332 332 332 333 333 331 330 329 325 323 322 321 320 318 318 318 319 319 320 320 321 322 325 327 328 331 330 328 328 327 327 323 325 319 316 316 323 322 324 330 325 326 328
332 333 332 332 332 333 333 333 330 326 324 323 321 320 318 318 318 319 319 320 321 322 323 328 328 331 332 329 328 328 327 325 320 322 326 326 318 322 322 329 328 329 330
332 330 330 331 331 332 333 333 333 331 329 326 323 321 320 319 318 318 319 319 320 322 323 329 329 331 332 331 329 328 328 327 327 327 327 328 327 321 320 328 328 329 329
327 328 328 329 329 329 329 331 332 333 333 332 328 324 322 321 319 318 318 319 320 321 322 330 331 330 332 332 330 329 329 328 327 327 327 327 327 324 321 323 327 328 328
327 327 327 328 328 329 329 329 329 330 331 333 332 330 325 322 321 319 319 318 319 320 321 332 333 331 332 331 331 329 329 329 329 327 327 327 326 326 324 325 326 328 327
327 326 326 327 327 327 328 328 328 328 330 331 331 331 331 329 323 321 320 320 319 320 323 335 335 332 332 331 329 330 328 328 328 329 328 326 326 327 326 326 326 326 327
325 326 326 327 327 327 328 328 328 328 328 329 329 330 332 333 332 325 323 323 322 322 326 334 332 333 332 330 329 331 329 329 330 329 329 327 326 326 327 328 327 327 328
325 325 326 327 327 328 328 328 328 328 328 329 330 331 333 335 335 332 328 326 328 327 335 333 332 332 333 329 330 331 330 330 329 327 328 328 327 326 327 329 329 328 329
325 326 326 326 326 328 328 328 327 327 328 329 330 334 337 338 336 335 337 336 334 336 336 332 331 331 332 332 330 329 330 328 328 328 328 328 327 325 325 326 330 327 326
324 325 327 327 328 328 328 327 328 328 328 330 333 337 339 338 338 339 339 336 335 334 333 333 331 331 330 329 325 328 328 328 328 327 327 327 327 326 325 324 328 327 328
323 324 323 324 328 328 327 328 328 328 329 333 337 339 339 340 341 341 337 334 333 332 333 333 330 328 327 328 328 328 328 328 326 327 327 327 326 325 325 325 328 327 327
324 323 323 324 326 327 327 328 329 331 334 337 339 340 341 341 341 338 334 332 332 332 332 329 329 328 328 328 328 328 326 325 324 325 326 325 324 325 326 326 326 326 327
321 322 323 325 326 328 328 330 332 333 335 337 340 341 340 337 335 334 332 332 333 333 331 330 329 329 328 328 327 328 325 324 324 324 323 324 324 326 326 325 325 326 326
320 321 324 326 328 330 330 334 335 337 339 340 340 338 337 336 333 332 332 331 333 331 329 328 328 328 326 327 327 326 326 326 324 325 325 324 325 326 326 327 327 326 326
322 322 327 330 332 333 335 337 339 341 341 340 339 338 333 332 332 332 333 333 333 330 328 328 326 326 326 324 324 325 325 325 324 324 325 325 327 327 327 325 325 326 327